CYGFM01

Last updated on Sat Aug 15 2026 00:02:40 GMT+0000 (Coordinated Universal Time)

1 41887U 16078D 26226.38910866 .00016754 00000+0 20142-3 0 9993 2 41887 34.9381 235.0139 0005543 320.2135 39.8183 15.59879798537795
UTC large
Height (km)
Speed (km/s)
/
Latitude / Longitude
Inclination (degrees)
Orbital Period (minutes)
Azimuth
Elevation
Range (km)
Doppler Factor

Next 0 passes for location: London (51.5072 / 0.1276)

No passes found over London.
CYGFM01